SCP
0 0 0 0 0 0 0 0 0 0 0 0 0 0 0 0 0 0 0 0 0 0 0 0 0 -0 0 0 0 0 0 0
0 0 0 0 0 0 0 -0 0 0 0 0 0 0 0 0 0 0 0 0 0 0 0 0 0 0 0 0 0 0 0 0
0 0 0 0 0 0 0 0 0 0 0 0 0 0 0 0 0 0 0 0 0 0 0 0 0 0 0 0 0 0 0 0
0 0 0 0 0 0 0 0 0 0 0 0 0 0 0 0 0 0 0 0 0 0 0 0 0 0 0 0 0 0 0 0
0 0 0 0 0 0 0 0 0 0 0 0 0 0 0 -0 0 -0 -0 -0 0 0 0 0 0 0 0 0 0 0 0 0
0 0 0 0 0 0 0 0 0 0 0 0 0 -0 0 -0 0 0 -0 -0 0 -0 0 0 0 0 0 0 0 0 0 0
0 0 0 0 0 0 0 0 0 0 0 0 0 -0 0 0 -0 -0 0 -0 -0 0 0 0 0 0 0 0 -0 0 0 0
0 0 0 0 0 0 0 0 0 0 0 0 0 0 -0 0 0 -0 -0 -0 -0 0 -0 -0 0 0 0 0 -0 -0 0 0
0 0 0 0 0 0 0 0 0 0 0 0 0 0 -0 -0 0 0 0 -0 0 -0 0 0 0 0 0 0 0 -0 -0 -0
0 0 0 0 0 0 0 0 0 0 0 0 0 0 0 0 0 0 0 0 0 0 0 0 0 0 0 -0 -0 -0 -0 -0
0 0 0 0 0 0 0 0 0 0 -0 -0 0 0 0 0 -0 -0 -0 0 0 0 0 0 0 0 -0 0 0 0 0 0
0 0 -0 -0 -0 -0 -0 0 0 0 -0 -0 0 0 0 0 0 0 0 -0 0 0 0 0 0 0 0 -0 -0 -0 0 -0
0 0 0 0 -0 -0 -0 -0 -0 -0 0 -0 0 0 0 0 0 0 -0 0 0 -0 0 0 0 0 0 -0 0 0 0 0
0 0 0 0 0 0 0 -0 -0 -0 -0 0 -0 0 0 0 0 0 0 -0 -0 -0 0 0 0 0 0 -0 0 0 0 0
0 0 0 0 0 0 0 0 -0 -0 -0 -0 0 0 0 0 0 0 0 0 0 -0 0 0 0 0 0 0 0 0 0 0
0 0 0 0 0 0 0 0 0 0 0 -0 -0 0 0 0 0 0 0 0 0 -0 0 0 0 -0 0 0 0 0 0 0
0 0 0 0 0 0 0 0 0 0 0 0 0 0 0 0 0 -0 0 0 0 0 0 0 0 0 -0 0 0 0 0 0
0 0 0 0 0 0 0 0 0 0 0 0 0 0 0 -0 0 0 0 0 0 0 0 0 0 0 0 0 0 0 0 0
0 0 0 0 0 0 0 0 0 0 0 0 0 0 0 0 0 0 0 0 0 0 0 0 0 0 0 0 0 0 0 0
0 0 0 0 0 0 0 0 0 0 0 0 0 0 0 0 0 -0 -0 0 0 0 0 0 0 0 0 0 0 0 0 0
Wind_Speed_500mb
22 27 31 22 18 16 15 9 8 6 14 9 11 9 15 11 23 25 19 21 25 30 13 9 7 9 10 14 16 23 13 15
18 16 26 23 23 21 10 7 11 14 10 9 13 14 19 13 15 19 20 17 18 16 12 13 14 8 11 11 11 21 31 26
2 7 17 25 29 21 13 6 15 15 22 10 13 15 18 15 16 20 16 21 10 10 13 19 14 10 9 8 9 13 19 25
17 16 12 21 24 23 16 14 17 20 21 16 14 14 11 15 14 14 14 21 9 4 6 15 12 3 5 3 6 5 8 11
35 30 28 23 23 25 19 23 21 21 30 17 14 16 15 12 16 17 17 15 10 9 3 3 10 6 3 6 10 6 7 7
42 28 21 29 30 29 26 25 23 21 28 24 15 21 19 15 13 17 20 16 11 12 7 6 7 8 4 6 2 3 5 2
42 40 38 32 36 43 41 32 24 24 27 30 22 18 15 18 16 19 20 17 13 13 13 17 14 15 14 14 11 7 2 6
50 47 46 42 42 47 41 43 33 28 23 32 29 26 26 22 25 23 21 18 14 17 15 16 21 20 19 15 18 16 13 9
49 52 47 47 40 36 30 30 37 36 25 29 30 28 28 25 25 24 21 19 15 13 19 19 20 22 22 16 13 22 25 21
52 56 58 54 44 37 32 42 36 31 32 34 35 31 32 34 32 29 27 29 29 24 23 24 22 23 24 24 19 12 18 25
43 47 59 62 58 40 35 32 31 32 36 35 36 35 35 38 34 36 34 33 35 27 22 22 20 18 20 22 23 22 21 19
48 50 56 60 60 56 46 34 30 40 42 38 33 33 34 34 43 40 41 38 36 29 28 20 14 12 17 18 21 26 26 18
48 44 49 53 50 52 48 42 41 29 26 38 28 30 33 34 37 44 43 44 39 36 30 25 29 27 24 19 21 27 32 29
46 49 49 48 44 39 46 51 44 31 20 32 46 31 27 26 29 39 37 42 40 38 33 30 26 29 31 31 25 20 30 33
40 45 46 43 43 39 40 41 45 34 30 36 33 23 28 26 30 25 36 34 35 40 36 30 33 30 38 39 34 30 30 34
33 37 44 43 34 29 36 35 40 30 32 28 25 26 36 27 32 32 28 34 34 45 31 37 34 29 29 35 40 41 38 40
38 39 35 34 32 29 26 33 42 34 30 32 31 32 31 35 33 37 33 28 36 39 42 36 32 30 36 36 38 42 39 32
32 36 40 44 44 44 40 37 32 33 30 34 34 35 26 31 28 30 25 26 32 41 40 31 29 34 32 31 29 38 40 35
40 51 54 55 54 50 43 26 26 31 33 36 32 27 28 27 31 36 35 24 21 29 33 39 32 32 32 31 25 30 39 38
48 47 45 49 46 43 40 37 37 35 28 32 26 23 29 27 31 32 28 31 25 35 43 30 28 24 26 33 27 36 36 32
Wind_Direction_500mb
227 226 229 237 239 254 295 281 220 273 323 328 352 357 10 6 14 14 20 20 25 35 71 37 349 21 51 55 48 53 61 58
266 257 250 250 251 257 287 313 234 272 294 309 334 331 340 336 343 355 4 4 19 24 24 6 1 91 77 72 57 73 66 73
339 289 256 254 247 254 268 291 267 262 300 296 308 314 319 328 344 324 338 349 3 7 359 26 35 131 132 94 81 83 74 78
305 310 290 284 260 264 274 289 266 257 274 292 305 328 308 313 320 331 334 348 328 11 331 22 29 105 177 193 124 131 99 94
301 310 307 307 281 275 285 324 299 267 272 277 285 280 305 309 314 308 305 324 320 227 333 307 14 25 130 152 152 128 99 99
332 305 305 294 304 296 291 303 303 279 273 271 255 282 304 302 294 343 335 306 305 230 255 285 309 350 315 223 238 193 228 200
347 343 320 302 305 295 293 287 303 277 276 275 260 257 271 296 304 310 325 328 291 259 258 263 267 286 308 265 265 226 210 274
351 344 331 331 298 291 269 281 287 282 278 269 267 268 257 271 286 291 311 317 319 287 272 272 273 261 274 287 252 241 256 277
1 359 357 351 329 324 275 270 269 287 287 271 268 270 252 266 275 288 285 295 311 296 294 303 297 284 257 258 262 253 261 266
358 359 357 357 350 324 306 277 288 274 281 275 267 268 260 257 263 272 276 286 293 294 294 302 297 280 262 238 237 253 270 257
354 351 352 359 0 345 312 300 293 271 256 270 276 265 256 255 261 268 264 269 282 281 308 288 312 250 238 238 234 244 270 264
356 351 355 357 0 3 1 334 277 268 271 264 271 271 268 266 259 267 264 262 266 267 290 286 304 263 258 247 237 228 237 245
355 355 356 356 359 4 5 4 358 331 258 290 273 274 279 272 267 260 263 261 262 266 273 281 293 288 296 290 272 248 241 259
354 357 355 353 351 357 5 10 360 348 336 318 290 284 273 278 278 278 258 255 259 260 268 271 275 287 288 292 299 266 251 263
339 346 348 345 347 346 356 359 1 354 351 328 315 321 318 286 281 285 271 260 252 249 262 275 268 285 280 277 279 282 277 273
345 335 340 340 339 339 341 349 356 355 358 352 330 326 326 293 304 283 273 260 269 251 253 264 260 273 284 279 268 266 275 280
339 336 346 348 343 337 342 333 341 343 333 349 350 351 345 341 304 307 270 264 255 254 271 272 267 279 268 286 255 250 265 274
353 357 352 346 340 338 338 327 324 323 327 332 333 337 331 346 339 316 316 274 274 248 261 259 263 292 270 262 268 250 261 271
349 346 351 348 341 334 324 313 301 309 313 334 334 332 331 328 342 333 324 309 290 244 254 252 265 273 268 249 270 265 266 275
347 357 360 356 350 350 354 330 315 308 308 325 326 326 332 325 326 330 334 319 307 280 268 272 250 257 266 237 254 275 276 267
Wind_Speed_850mb
22 27 31 22 18 16 15 9 8 6 14 9 11 9 15 11 23 25 19 21 25 30 13 9 7 9 10 14 16 23 13 15
18 16 26 23 23 21 10 7 11 14 10 9 13 14 19 13 15 19 20 17 18 16 12 13 14 8 11 11 11 21 31 26
2 7 17 25 29 21 13 6 15 15 22 10 13 15 18 15 16 20 16 21 10 10 13 19 14 10 9 8 9 13 19 25
17 16 12 21 24 23 16 14 17 20 21 16 14 14 11 15 14 14 14 21 9 4 6 15 12 3 5 3 6 5 8 11
35 30 28 23 23 25 19 23 21 21 30 17 14 16 15 12 16 17 17 15 10 9 3 3 10 6 3 6 10 6 7 7
42 28 21 29 30 29 26 25 23 21 28 24 15 21 19 15 13 17 20 16 11 12 7 6 7 8 4 6 2 3 5 2
42 40 38 32 36 43 41 32 24 24 27 30 22 18 15 18 16 19 20 17 13 13 13 17 14 15 14 14 11 7 2 6
50 47 46 42 42 47 41 43 33 28 23 32 29 26 26 22 25 23 21 18 14 17 15 16 21 20 19 15 18 16 13 9
49 52 47 47 40 36 30 30 37 36 25 29 30 28 28 25 25 24 21 19 15 13 19 19 20 22 22 16 13 22 25 21
52 56 58 54 44 37 32 42 36 31 32 34 35 31 32 34 32 29 27 29 29 24 23 24 22 23 24 24 19 12 18 25
43 47 59 62 58 40 35 32 31 32 36 35 36 35 35 38 34 36 34 33 35 27 22 22 20 18 20 22 23 22 21 19
48 50 56 60 60 56 46 34 30 40 42 38 33 33 34 34 43 40 41 38 36 29 28 20 14 12 17 18 21 26 26 18
48 44 49 53 50 52 48 42 41 29 26 38 28 30 33 34 37 44 43 44 39 36 30 25 29 27 24 19 21 27 32 29
46 49 49 48 44 39 46 51 44 31 20 32 46 31 27 26 29 39 37 42 40 38 33 30 26 29 31 31 25 20 30 33
40 45 46 43 43 39 40 41 45 34 30 36 33 23 28 26 30 25 36 34 35 40 36 30 33 30 38 39 34 30 30 34
33 37 44 43 34 29 36 35 40 30 32 28 25 26 36 27 32 32 28 34 34 45 31 37 34 29 29 35 40 41 38 40
38 39 35 34 32 29 26 33 42 34 30 32 31 32 31 35 33 37 33 28 36 39 42 36 32 30 36 36 38 42 39 32
32 36 40 44 44 44 40 37 32 33 30 34 34 35 26 31 28 30 25 26 32 41 40 31 29 34 32 31 29 38 40 35
40 51 54 55 54 50 43 26 26 31 33 36 32 27 28 27 31 36 35 24 21 29 33 39 32 32 32 31 25 30 39 38
48 47 45 49 46 43 40 37 37 35 28 32 26 23 29 27 31 32 28 31 25 35 43 30 28 24 26 33 27 36 36 32
Wind_Direction_850mb
227 226 229 237 239 254 295 281 220 273 323 328 352 357 10 6 14 14 20 20 25 35 71 37 349 21 51 55 48 53 61 58
266 257 250 250 251 257 287 313 234 272 294 309 334 331 340 336 343 355 4 4 19 24 24 6 1 91 77 72 57 73 66 73
339 289 256 254 247 254 268 291 267 262 300 296 308 314 319 328 344 324 338 349 3 7 359 26 35 131 132 94 81 83 74 78
305 310 290 284 260 264 274 289 266 257 274 292 305 328 308 313 320 331 334 348 328 11 331 22 29 105 177 193 124 131 99 94
301 310 307 307 281 275 285 324 299 267 272 277 285 280 305 309 314 308 305 324 320 227 333 307 14 25 130 152 152 128 99 99
332 305 305 294 304 296 291 303 303 279 273 271 255 282 304 302 294 343 335 306 305 230 255 285 309 350 315 223 238 193 228 200
347 343 320 302 305 295 293 287 303 277 276 275 260 257 271 296 304 310 325 328 291 259 258 263 267 286 308 265 265 226 210 274
351 344 331 331 298 291 269 281 287 282 278 269 267 268 257 271 286 291 311 317 319 287 272 272 273 261 274 287 252 241 256 277
1 359 357 351 329 324 275 270 269 287 287 271 268 270 252 266 275 288 285 295 311 296 294 303 297 284 257 258 262 253 261 266
358 359 357 357 350 324 306 277 288 274 281 275 267 268 260 257 263 272 276 286 293 294 294 302 297 280 262 238 237 253 270 257
354 351 352 359 0 345 312 300 293 271 256 270 276 265 256 255 261 268 264 269 282 281 308 288 312 250 238 238 234 244 270 264
356 351 355 357 0 3 1 334 277 268 271 264 271 271 268 266 259 267 264 262 266 267 290 286 304 263 258 247 237 228 237 245
355 355 356 356 359 4 5 4 358 331 258 290 273 274 279 272 267 260 263 261 262 266 273 281 293 288 296 290 272 248 241 259
354 357 355 353 351 357 5 10 360 348 336 318 290 284 273 278 278 278 258 255 259 260 268 271 275 287 288 292 299 266 251 263
339 346 348 345 347 346 356 359 1 354 351 328 315 321 318 286 281 285 271 260 252 249 262 275 268 285 280 277 279 282 277 273
345 335 340 340 339 339 341 349 356 355 358 352 330 326 326 293 304 283 273 260 269 251 253 264 260 273 284 279 268 266 275 280
339 336 346 348 343 337 342 333 341 343 333 349 350 351 345 341 304 307 270 264 255 254 271 272 267 279 268 286 255 250 265 274
353 357 352 346 340 338 338 327 324 323 327 332 333 337 331 346 339 316 316 274 274 248 261 259 263 292 270 262 268 250 261 271
349 346 351 348 341 334 324 313 301 309 313 334 334 332 331 328 342 333 324 309 290 244 254 252 265 273 268 249 270 265 266 275
347 357 360 356 350 350 354 330 315 308 308 325 326 326 332 325 326 330 334 319 307 280 268 272 250 257 266 237 254 275 276 267